Last 24 Hours

Pinyon

10 Minute Data | America/Los_Angeles
as of 5/6/26 9:05 AM PDT
Date & Time Temp (°F) Dew Pt (°F) RH (%) Wind Spd (mph) Wind Dir (°) Wind Gust (mph) Wind Gst Dir (°) Daily Max Temp (°F) Daily Min Temp (°F)
5/6/26 - 0900 58.7 33.4 38 4.8 SSE | 155 8.3 SSE | 155 59.7 44.1
5/6/26 - 0850 58.9 33.5 38 5.0 SSE | 161 7.5 S | 171 59.7 44.1
5/6/26 - 0840 58.6 33.3 38 4.6 SSE | 167 7.7 S | 178 59.7 44.1
5/6/26 - 0830 58.6 32.6 37 5.1 SSE | 168 8.5 SSE | 161 59.7 44.1
5/6/26 - 0820 59.1 31.4 35 4.2 S | 175 7.5 SE | 146 59.7 44.1
5/6/26 - 0810 58.9 30.5 34 1.3 SE | 142 4.2 SE | 127 59.7 44.1
5/6/26 - 0800 58.6 30.6 34 0.9 SSE | 164 2.6 SE | 129 59.3 44.1
5/6/26 - 0750 57.6 31.3 37 0.8 WNW | 301 3.3 WSW | 239 58.0 44.1
5/6/26 - 0740 56.8 31.0 37 1.0 NW | 313 2.1 WNW | 289 57.1 44.1
5/6/26 - 0730 56.0 32.2 40 1.0 NNW | 331 2.1 NNW | 330 56.4 44.1
5/6/26 - 0720 55.2 32.0 41 1.3 NW | 326 2.1 NW | 326 55.6 44.1
5/6/26 - 0710 54.5 31.2 41 1.0 NW | 320 2.1 NW | 326 54.9 44.1
5/6/26 - 0700 53.7 30.3 40 1.9 NW | 315 2.8 NW | 320 54.1 44.1
5/6/26 - 0650 52.6 30.9 43 1.9 NNW | 329 2.8 NW | 315 53.1 44.1
5/6/26 - 0640 52.0 31.6 46 2.9 N | 8 3.9 NNE | 18 52.2 44.1
5/6/26 - 0630 52.0 31.8 46 3.4 N | 1 3.9 N | 10 52.2 44.1
5/6/26 - 0620 51.6 32.1 47 3.9 N | 5 5.0 NNE | 22 52.2 44.1
5/6/26 - 0610 50.9 32.4 49 5.0 NNE | 21 5.7 NNE | 23 52.0 44.1
5/6/26 - 0600 51.2 33.0 49 3.8 N | 10 4.5 NNE | 21 52.0 44.1
5/6/26 - 0550 51.1 32.4 49 2.9 N | 360 3.4 N | 3 52.0 44.1
5/6/26 - 0540 51.1 31.8 47 2.7 NNW | 333 3.1 NW | 326 52.0 44.1
5/6/26 - 0530 51.0 31.6 47 3.0 NNW | 341 3.4 NNW | 348 52.0 44.1
5/6/26 - 0520 51.2 31.5 47 3.1 NNW | 331 3.6 NNW | 329 52.0 44.1
5/6/26 - 0510 51.5 32.1 47 2.6 NNW | 331 3.8 NNW | 344 52.0 44.1
5/6/26 - 0500 51.5 32.1 47 2.3 NW | 312 3.3 NW | 314 52.0 44.1
5/6/26 - 0450 51.9 32.5 47 2.5 NW | 320 3.6 NW | 314 52.0 44.1
5/6/26 - 0440 51.6 33.1 49 2.1 NNW | 330 2.5 NW | 322 51.7 44.1
5/6/26 - 0430 51.3 33.4 50 2.2 NW | 317 2.8 NW | 317 51.5 44.1
5/6/26 - 0420 51.4 33.6 50 2.4 NW | 320 3.3 NNW | 339 51.5 44.1
5/6/26 - 0410 51.2 33.9 51 3.5 N | 5 4.4 NNE | 16 51.4 44.1
5/6/26 - 0400 50.7 34.0 53 3.8 NNE | 16 4.5 NNE | 12 51.0 44.1
5/6/26 - 0350 50.2 34.1 54 4.1 NNE | 14 5.1 NNE | 20 50.6 44.1
5/6/26 - 0340 50.4 34.2 53 3.3 NNW | 342 3.9 N | 3 50.6 44.1
5/6/26 - 0330 50.5 34.1 53 4.2 NNE | 13 4.6 N | 11 50.6 44.1
5/6/26 - 0320 49.9 34.4 55 4.1 NNE | 22 4.7 NNE | 25 50.3 44.1
5/6/26 - 0310 48.9 35.0 58 4.6 NNE | 18 5.1 NNE | 20 49.4 44.1
5/6/26 - 0300 48.2 35.4 61 4.7 NNE | 21 5.9 NNE | 28 48.7 44.1
5/6/26 - 0250 46.4 36.0 67 5.9 NNE | 29 6.6 NNE | 32 47.3 44.1
5/6/26 - 0240 45.6 36.4 70 6.7 NNE | 30 8.0 NNE | 31 46.1 44.1
5/6/26 - 0230 45.0 36.6 72 6.8 NNE | 33 9.0 NE | 41 45.1 44.1
5/6/26 - 0220 44.4 36.9 75 7.3 NE | 37 9.3 NE | 40 44.6 44.1
5/6/26 - 0210 44.3 37.0 75 7.5 NE | 37 9.5 NE | 42 44.5 44.1
5/6/26 - 0200 44.3 37.1 76 7.5 NE | 34 9.8 NE | 38 44.5 44.1
5/6/26 - 0150 44.2 37.3 77 7.6 NNE | 27 9.9 NNE | 27 44.5 44.1
5/6/26 - 0140 44.4 37.4 76 8.3 NNE | 15 11.3 N | 5 44.5 44.2
5/6/26 - 0130 44.4 37.6 77 9.7 N | 5 14.0 N | 350 44.5 44.2
5/6/26 - 0120 44.3 37.8 78 10.9 N | 350 16.9 NNW | 346 44.5 44.2
5/6/26 - 0110 44.3 38.0 78 13.0 NNW | 342 19.6 NNW | 345 44.4 44.2
5/6/26 - 0100 44.2 38.2 79 13.9 NNW | 338 22.0 N | 354 55.2 40.7
5/6/26 - 0050 44.2 38.2 79 14.1 NNW | 339 20.8 NNW | 343 55.2 40.7
5/6/26 - 0040 44.1 38.3 80 15.4 NNW | 340 24.6 NW | 324 55.2 40.7
5/6/26 - 0030 44.2 38.2 79 13.9 NNW | 343 21.2 NNW | 348 55.2 40.7
5/6/26 - 0020 44.3 38.1 79 13.4 NNW | 344 20.9 N | 354 55.2 40.7
5/6/26 - 0010 44.4 38.2 79 13.9 NNW | 341 21.7 NNW | 338 55.2 40.7
5/6/26 - 0000 44.5 38.3 79 15.5 NNW | 338 24.3 NNW | 331 55.2 40.7
5/5/26 - 2350 44.3 38.4 80 15.8 NNW | 335 24.8 NNW | 338 55.2 40.7
5/5/26 - 2340 44.3 38.4 79 15.9 NNW | 336 25.6 NNW | 336 55.2 40.7
5/5/26 - 2330 44.5 38.2 78 14.7 NNW | 338 22.6 NNW | 340 55.2 40.7
5/5/26 - 2320 44.6 38.2 78 15.3 NNW | 339 23.2 NNW | 334 55.2 40.7
5/5/26 - 2310 44.6 38.3 79 16.7 NNW | 336 23.2 NNW | 328 55.2 40.7
5/5/26 - 2300 44.5 38.4 79 16.9 NNW | 335 25.7 NW | 326 55.2 40.7
5/5/26 - 2250 44.5 38.5 79 15.5 NNW | 337 24.3 NNW | 334 55.2 40.7
5/5/26 - 2240 44.7 38.5 79 16.0 NNW | 334 26.4 NNW | 332 55.2 40.7
5/5/26 - 2230 44.8 38.6 79 16.4 NNW | 333 24.1 NNW | 335 55.2 40.7
5/5/26 - 2220 45.0 38.5 78 13.8 NNW | 337 24.1 NNW | 336 55.2 40.7
5/5/26 - 2210 45.2 38.5 77 12.4 NNW | 342 18.5 N | 3 55.2 40.7
5/5/26 - 2200 45.4 38.4 76 11.0 NNW | 345 16.9 NNW | 333 55.2 40.7
5/5/26 - 2150 45.4 38.4 76 11.6 NNW | 346 16.7 N | 0 55.2 40.7
5/5/26 - 2140 45.3 38.5 77 10.1 NNW | 347 15.0 NNW | 330 55.2 40.7
5/5/26 - 2130 45.2 38.7 78 11.0 N | 354 17.8 NNW | 346 55.2 40.7
5/5/26 - 2120 45.1 38.7 78 11.1 N | 351 19.3 N | 350 55.2 40.7
5/5/26 - 2110 45.3 38.7 78 12.2 NNW | 347 18.6 N | 350 55.2 40.7
5/5/26 - 2100 45.3 38.8 78 13.8 NNW | 337 21.8 NNW | 342 55.2 40.7
5/5/26 - 2050 45.3 38.8 78 14.4 NNW | 335 21.0 N | 352 55.2 40.7
5/5/26 - 2040 45.4 38.7 77 13.8 NNW | 335 20.5 NNW | 343 55.2 40.7
5/5/26 - 2030 45.5 38.6 77 14.0 NNW | 333 19.2 NNW | 344 55.2 40.7
5/5/26 - 2020 45.5 38.7 77 15.0 NNW | 332 23.3 NNW | 339 55.2 40.7
5/5/26 - 2010 45.6 38.8 77 15.4 NNW | 332 22.8 NNW | 327 55.2 40.7
5/5/26 - 2000 45.8 38.8 76 15.4 NNW | 332 22.5 NNW | 329 55.2 40.7
5/5/26 - 1950 46.1 38.8 75 16.1 NNW | 329 24.8 NNW | 329 55.2 40.7
5/5/26 - 1940 46.4 38.7 74 16.5 NNW | 328 23.8 NNW | 334 55.2 40.7
5/5/26 - 1930 46.9 38.5 72 16.4 NNW | 327 23.8 NW | 318 55.2 40.7
5/5/26 - 1920 47.6 38.2 70 15.4 NNW | 328 22.4 NW | 322 55.2 40.7
5/5/26 - 1910 48.9 37.6 65 14.8 NW | 326 20.6 NW | 321 55.2 40.7
5/5/26 - 1900 50.2 37.3 61 14.1 NNW | 330 19.6 NNW | 329 55.2 40.7
5/5/26 - 1850 51.0 36.9 58 12.4 NNW | 340 18.0 NNW | 333 55.2 40.7
5/5/26 - 1840 51.5 36.9 57 11.9 NNW | 337 17.0 NNW | 329 55.2 40.7
5/5/26 - 1830 51.6 36.6 56 12.0 N | 356 17.0 N | 4 55.2 40.7
5/5/26 - 1820 51.9 36.3 55 13.3 NNW | 344 19.9 N | 354 55.2 40.7
5/5/26 - 1810 52.4 36.0 53 12.4 N | 352 17.9 NNW | 345 55.2 40.7
5/5/26 - 1800 52.5 36.3 54 13.1 N | 355 19.9 N | 4 55.2 40.7
5/5/26 - 1750 52.8 36.4 54 14.4 N | 358 19.3 NNW | 343 55.2 40.7
5/5/26 - 1740 53.4 35.8 51 13.2 N | 351 20.5 NNW | 347 55.2 40.7
5/5/26 - 1730 53.1 35.8 52 13.8 N | 350 21.0 N | 353 55.2 40.7
5/5/26 - 1720 53.5 35.1 49 13.7 N | 351 22.1 N | 5 55.2 40.7
5/5/26 - 1710 53.3 35.5 51 15.0 N | 353 22.9 NNW | 344 55.2 40.7
5/5/26 - 1700 54.0 35.0 48 14.3 NNW | 342 22.9 NW | 322 55.2 40.7
5/5/26 - 1650 53.4 35.3 50 15.7 NNW | 347 22.4 NNW | 346 55.2 40.7
5/5/26 - 1640 53.0 35.4 51 17.4 N | 351 25.4 NNW | 341 55.2 40.7
5/5/26 - 1630 53.5 34.0 47 17.7 NNW | 344 26.1 NNW | 339 55.2 40.7
5/5/26 - 1620 54.5 33.9 46 16.4 N | 351 22.0 NNW | 330 55.2 40.7
5/5/26 - 1610 54.0 33.8 46 17.0 N | 349 26.2 N | 349 55.2 40.7
5/5/26 - 1600 54.2 33.6 45 17.3 N | 354 25.7 NNW | 343 55.2 40.7
5/5/26 - 1550 53.6 34.9 49 17.3 NNW | 344 25.4 NW | 326 55.0 40.7
5/5/26 - 1540 53.2 34.3 48 19.4 NNW | 339 28.9 NNW | 344 54.5 40.7
5/5/26 - 1530 53.7 34.0 47 20.2 NNW | 334 30.4 NNW | 334 54.5 40.7
5/5/26 - 1520 53.8 33.9 47 18.8 NNW | 339 27.9 NW | 325 54.5 40.7
5/5/26 - 1510 54.0 33.4 46 18.1 NNW | 339 29.7 NNW | 336 54.5 40.7
5/5/26 - 1500 53.8 33.0 45 18.3 NNW | 340 27.5 NNW | 340 54.4 40.7
5/5/26 - 1450 53.6 32.1 44 20.1 NNW | 337 31.8 NNW | 336 54.3 40.7
5/5/26 - 1440 53.5 33.5 46 18.6 NNW | 330 28.3 NW | 323 54.3 40.7
5/5/26 - 1430 53.0 33.6 48 17.0 NNW | 342 28.0 NNW | 344 54.3 40.7
5/5/26 - 1420 53.5 33.9 47 16.2 NNW | 343 25.6 NNW | 344 54.3 40.7
5/5/26 - 1410 53.2 34.2 48 18.3 NNW | 343 28.9 NNW | 328 53.8 40.7
5/5/26 - 1400 52.7 34.4 50 18.6 NNW | 342 27.2 NNW | 329 53.1 40.7
5/5/26 - 1350 52.2 33.4 49 19.8 NNW | 330 29.4 NNW | 341 53.1 40.7
5/5/26 - 1340 52.3 32.3 46 20.1 NNW | 332 29.1 NNW | 338 53.1 40.7
5/5/26 - 1330 51.3 32.4 48 21.3 NNW | 334 31.4 NNW | 348 52.6 40.7
5/5/26 - 1320 51.1 34.9 54 20.6 NNW | 330 29.9 NW | 318 51.7 40.7
5/5/26 - 1310 51.0 34.6 53 19.0 NNW | 346 29.4 NNW | 336 51.7 40.7
5/5/26 - 1300 50.3 35.1 56 20.5 NNW | 331 31.4 N | 354 51.7 40.7
5/5/26 - 1250 50.1 35.7 57 20.9 NNW | 331 31.3 NNW | 327 51.7 40.7
5/5/26 - 1240 49.7 35.4 58 20.7 NNW | 333 30.3 NNW | 342 51.7 40.7
5/5/26 - 1230 50.3 35.9 57 18.9 NNW | 335 29.2 NNW | 339 51.7 40.7
5/5/26 - 1220 49.3 35.8 59 19.3 NNW | 347 28.1 N | 354 50.2 40.7
5/5/26 - 1210 48.8 36.6 62 20.0 NNW | 336 30.3 NW | 322 50.2 40.7
5/5/26 - 1200 49.4 36.4 61 19.8 NNW | 335 28.1 NNW | 347 50.2 40.7
5/5/26 - 1150 49.2 37.0 63 18.2 NNW | 341 26.4 NNW | 337 50.0 40.7
5/5/26 - 1140 49.1 36.9 63 20.6 NNW | 345 30.7 N | 5 49.9 40.7
5/5/26 - 1130 48.6 37.8 66 19.4 NNW | 336 30.2 NW | 326 49.9 40.7
5/5/26 - 1120 48.3 37.8 67 20.6 NNW | 339 30.6 NNW | 329 49.5 40.7
5/5/26 - 1110 48.2 38.3 69 21.4 NNW | 339 30.3 NNW | 338 49.3 40.7
5/5/26 - 1100 48.3 38.5 69 22.0 NNW | 340 31.4 NNW | 343 49.3 40.7
5/5/26 - 1050 48.7 38.2 67 20.4 NNW | 338 30.1 NNW | 336 49.3 40.7
5/5/26 - 1040 48.1 38.2 68 20.8 NNW | 332 28.8 NNW | 332 48.8 40.7
5/5/26 - 1030 47.7 38.3 70 18.9 NNW | 339 25.1 NNW | 339 48.8 40.7
5/5/26 - 1020 46.8 38.5 73 18.6 NNW | 342 25.9 NNW | 332 48.8 40.7
5/5/26 - 1010 46.7 39.2 75 16.8 NNW | 335 25.2 NNW | 345 48.8 40.7
5/5/26 - 1000 46.3 39.6 77 16.3 NNW | 335 23.8 NW | 316 48.8 40.7
5/5/26 - 0950 45.4 39.7 80 15.5 NNW | 328 24.1 NNW | 337 48.8 40.7
5/5/26 - 0940 46.4 39.5 77 15.1 NW | 325 23.2 NNW | 328 48.8 40.7
5/5/26 - 0930 47.0 39.5 75 16.2 NNW | 336 23.8 NNW | 337 48.8 40.7
5/5/26 - 0920 47.3 38.7 72 17.6 NNW | 328 26.4 NW | 318 48.8 40.7
5/5/26 - 0910 48.2 38.5 69 14.2 NNW | 332 20.9 NW | 326 48.8 40.7
5/5/26 - 0900 46.9 37.6 70 16.6 NNW | 336 23.1 NNW | 331 48.0 40.7
Max 59.1 39.7 80 22.0 - 31.8 - 59.7 44.2
Avg 49.6 35.8 60 12.3 - 18.3 - - -
Min 44.1 30.3 34 0.8 - 2.1 - 44.4 40.7